Weather History for KMDS - December, 2013

Change the Weather History Date:

Saturday, December 7, 2013

  Actual Average Record
Temperature  
Mean Temperature -9 °F -  
Max Temperature -2 °F 28 °F 39 °F (2014)
Min Temperature -16 °F 11 °F -16 °F (2013)
Degree Days  
Heating Degree Days 74    
Moisture  
Dew Point -13 °F    
Average Humidity 79    
Maximum Humidity 92    
Minimum Humidity 65    
Precipitation  
Precipitation 0.00 in - - ()
Sea Level Pressure  
Sea Level Pressure 30.54 in    
Wind  
Wind Speed 7 mph (WSW)    
Max Wind Speed 12 mph    
Max Gust Speed -    
Visibility 10 miles    
Events Snow    
Averages and records for this station are not official NWS values.
T = Trace of Precipitation, MM = Missing Value Source: NWS Daily Summary

Daily Weather History Graph

Daily Weather History Graph

Search for Another Location

Airport or City:

Trip Planner

Search our weather history database for the weather conditions in past years. The results will help you decide how hot, cold, wet, or windy it might be!

Date:

Astronomy

Dec. 07, 2013 Rise Set
Actual Time 7:49 AM CST 4:50 PM CST
Civil Twilight 7:16 AM CST 5:22 PM CST
Nautical Twilight 6:40 AM CST 5:59 PM CST
Astronomical Twilight 6:05 AM CST 6:34 PM CST
Moon 11:28 AM CST (12/7) 10:41 PM CST (12/7)
Length of Visible Light 10h 06m
Length of Day
9h 00m
Waxing Crescent, 29% of the Moon is Illuminated
Dec 7
Waxing Crescent
Dec 9
First Quarter
Dec 17
Full
Dec 25
Last Quarter
Jan 1
New

Hourly Weather History & Observations

Time (CST) Temp. Windchill Dew Point Humidity Pressure Visibility Wind Dir Wind Speed Gust Speed Precip Events Conditions
12:10 AM -11.2 °F -29.0 °F -16.6 °F 77% 30.60 in 10.0 mi NW 9.2 mph - N/A   Clear
12:30 AM -11.2 °F -30.1 °F -14.8 °F 84% 30.59 in 10.0 mi WNW 10.4 mph - N/A   Clear
12:50 AM -11.2 °F -31.1 °F -14.8 °F 84% 30.59 in 10.0 mi WNW 11.5 mph - N/A   Clear
1:10 AM -11.2 °F -30.1 °F -14.8 °F 84% 30.59 in 10.0 mi WNW 10.4 mph - N/A   Clear
1:30 AM -11.2 °F -29.0 °F -14.8 °F 84% 30.59 in 10.0 mi WNW 9.2 mph - N/A   Clear
1:50 AM -13.0 °F -30.0 °F -16.6 °F 84% 30.59 in 10.0 mi NW 8.1 mph - N/A   Clear
2:10 AM -13.0 °F -31.3 °F -16.6 °F 84% 30.59 in 10.0 mi NW 9.2 mph - N/A   Clear
2:30 AM -13.0 °F -28.6 °F -16.6 °F 84% 30.59 in 10.0 mi WNW 6.9 mph - N/A   Clear
2:50 AM -13.0 °F -27.0 °F -16.6 °F 84% 30.60 in 10.0 mi WNW 5.8 mph - N/A   Clear
3:10 AM -14.8 °F -29.1 °F -18.4 °F 84% 30.59 in 10.0 mi WNW 5.8 mph - N/A   Clear
3:30 AM -13.0 °F -22.7 °F -18.4 °F 77% 30.59 in 10.0 mi NW 3.5 mph - N/A   Clear
3:50 AM -13.0 °F -25.1 °F -16.6 °F 84% 30.59 in 10.0 mi WNW 4.6 mph - N/A   Clear
4:10 AM -13.0 °F -25.1 °F -16.6 °F 84% 30.60 in 10.0 mi WSW 4.6 mph - N/A   Clear
4:30 AM -13.0 °F -25.1 °F -16.6 °F 84% 30.60 in 10.0 mi West 4.6 mph - N/A   Clear
4:50 AM -14.8 °F -27.2 °F -18.4 °F 84% 30.59 in 10.0 mi West 4.6 mph - N/A   Clear
5:10 AM -14.8 °F -30.8 °F -18.4 °F 84% 30.60 in 10.0 mi West 6.9 mph - N/A   Clear
5:30 AM -14.8 °F - -18.4 °F 84% 30.59 in 10.0 mi Calm Calm - N/A   Clear
5:50 AM -16.6 °F -31.3 °F -18.4 °F 92% 30.59 in 10.0 mi West 5.8 mph - N/A   Clear
6:10 AM -16.6 °F -32.9 °F -18.4 °F 92% 30.60 in 10.0 mi West 6.9 mph - N/A   Clear
6:30 AM -16.6 °F -26.8 °F -18.4 °F 92% 30.60 in 10.0 mi West 3.5 mph - N/A   Clear
6:50 AM -16.6 °F - -20.2 °F 84% 30.61 in 10.0 mi North - - N/A   Clear
7:10 AM -14.8 °F -29.1 °F -18.4 °F 84% 30.60 in 10.0 mi West 5.8 mph - N/A   Clear
7:30 AM -14.8 °F -30.8 °F -18.4 °F 84% 30.60 in 10.0 mi West 6.9 mph - N/A   Clear
7:50 AM -16.6 °F -32.9 °F -18.4 °F 92% 30.60 in 10.0 mi West 6.9 mph - N/A   Clear
8:10 AM -14.8 °F -32.2 °F -18.4 °F 84% 30.59 in 10.0 mi WNW 8.1 mph - N/A   Clear
8:30 AM -14.8 °F -29.1 °F -18.4 °F 84% 30.59 in 10.0 mi West 5.8 mph - N/A   Clear
8:50 AM -13.0 °F - -18.4 °F 77% 30.60 in 10.0 mi Calm Calm - N/A   Clear
9:10 AM -13.0 °F - -16.6 °F 84% 30.60 in 10.0 mi Calm Calm - N/A   Clear
9:30 AM -13.0 °F -22.7 °F -16.6 °F 84% 30.61 in 10.0 mi SSW 3.5 mph - N/A   Clear
9:50 AM -11.2 °F - -14.8 °F 84% 30.61 in 10.0 mi Calm Calm - N/A   Partly Cloudy
10:10 AM -9.4 °F -20.9 °F -13.0 °F 84% 30.62 in 10.0 mi West 4.6 mph - N/A   Mostly Cloudy
10:30 AM -9.4 °F -20.9 °F -11.2 °F 92% 30.62 in 10.0 mi WNW 4.6 mph - N/A   Overcast
10:50 AM -7.6 °F -22.1 °F -11.2 °F 84% 30.62 in 10.0 mi SW 6.9 mph - N/A   Overcast
11:10 AM -7.6 °F -22.1 °F -13.0 °F 77% 30.62 in 10.0 mi SSW 6.9 mph - N/A   Mostly Cloudy
11:30 AM -7.6 °F -22.1 °F -13.0 °F 77% 30.61 in 10.0 mi SW 6.9 mph - N/A   Clear
11:50 AM -7.6 °F -18.8 °F -13.0 °F 77% 30.59 in 10.0 mi West 4.6 mph - N/A   Clear
12:10 PM -5.8 °F -19.9 °F -13.0 °F 71% 30.59 in 10.0 mi WSW 6.9 mph - N/A   Clear
12:30 PM -5.8 °F -23.4 °F -13.0 °F 71% 30.58 in 10.0 mi WNW 10.4 mph - N/A   Clear
12:50 PM -4.0 °F -17.8 °F -13.0 °F 65% 30.59 in 10.0 mi West 6.9 mph - N/A   Clear
1:10 PM -4.0 °F -19.0 °F -11.2 °F 71% 30.57 in 10.0 mi WSW 8.1 mph - N/A   Clear
1:30 PM -4.0 °F -16.3 °F - N/A% 30.56 in 10.0 mi West 5.8 mph - N/A   Clear
1:50 PM -4.0 °F -16.3 °F -11.2 °F 71% 30.55 in 10.0 mi West 5.8 mph - N/A   Clear
2:10 PM -4.0 °F -14.6 °F -11.2 °F 71% 30.55 in 10.0 mi WSW 4.6 mph - N/A   Mostly Cloudy
2:30 PM -2.2 °F -10.4 °F -11.2 °F 66% 30.54 in 10.0 mi NW 3.5 mph - N/A   Scattered Clouds
2:50 PM -4.0 °F -17.8 °F -11.2 °F 71% 30.53 in 10.0 mi SW 6.9 mph - N/A   Partly Cloudy
3:10 PM -4.0 °F -16.3 °F -11.2 °F 71% 30.52 in 10.0 mi SSW 5.8 mph - N/A   Mostly Cloudy
3:30 PM -4.0 °F -16.3 °F -11.2 °F 71% 30.51 in 10.0 mi SSW 5.8 mph - N/A   Overcast
3:50 PM -4.0 °F -12.4 °F -11.2 °F 71% 30.50 in 10.0 mi South 3.5 mph - N/A   Overcast
4:10 PM -4.0 °F - -11.2 °F 71% 30.49 in 10.0 mi Calm Calm - N/A   Overcast
4:30 PM -4.0 °F - -11.2 °F 71% 30.49 in 10.0 mi Calm Calm - N/A   Overcast
4:50 PM -4.0 °F - -11.2 °F 71% 30.47 in 10.0 mi Calm Calm - N/A   Overcast
5:10 PM -4.0 °F -12.4 °F -11.2 °F 71% 30.47 in 10.0 mi NNE 3.5 mph - N/A   Overcast
5:30 PM -4.0 °F -14.6 °F -9.4 °F 78% 30.47 in 10.0 mi NE 4.6 mph - N/A   Overcast
5:50 PM -4.0 °F -12.4 °F -9.4 °F 78% 30.46 in 10.0 mi ENE 3.5 mph - N/A   Overcast
6:10 PM -4.0 °F -12.4 °F -11.2 °F 71% 30.46 in 10.0 mi East 3.5 mph - N/A   Overcast
6:30 PM -4.0 °F -14.6 °F -11.2 °F 71% 30.46 in 10.0 mi East 4.6 mph - N/A   Overcast
6:50 PM -4.0 °F -12.4 °F -9.4 °F 78% 30.45 in 10.0 mi ESE 3.5 mph - N/A   Overcast
7:10 PM -4.0 °F -16.3 °F -9.4 °F 78% 30.45 in 10.0 mi SE 5.8 mph - N/A   Overcast
7:30 PM -4.0 °F -17.8 °F -9.4 °F 78% 30.45 in 10.0 mi SE 6.9 mph - N/A   Overcast
7:50 PM -4.0 °F -17.8 °F -9.4 °F 78% 30.44 in 10.0 mi SE 6.9 mph - N/A   Overcast
8:10 PM -4.0 °F -16.3 °F -9.4 °F 78% 30.44 in 10.0 mi SE 5.8 mph - N/A   Overcast
8:30 PM -2.2 °F -16.8 °F -9.4 °F 71% 30.44 in 10.0 mi SSE 8.1 mph - N/A   Overcast
8:50 PM -2.2 °F -14.2 °F -7.6 °F 78% 30.43 in 10.0 mi SE 5.8 mph - N/A   Overcast
9:10 PM -2.2 °F -16.8 °F -7.6 °F 78% 30.43 in 10.0 mi SSE 8.1 mph - N/A   Overcast
9:30 PM -2.2 °F - -9.4 °F 71% 30.42 in 10.0 mi North - - N/A   Overcast
9:50 PM -2.2 °F -18.0 °F -7.6 °F 78% 30.41 in 10.0 mi SE 9.2 mph - N/A   Overcast
10:10 PM -2.2 °F -18.9 °F -7.6 °F 78% 30.40 in 10.0 mi SE 10.4 mph - N/A   Mostly Cloudy
10:30 PM -2.2 °F -18.9 °F -7.6 °F 78% 30.39 in 10.0 mi SE 10.4 mph - N/A   Overcast
10:50 PM -2.2 °F -18.9 °F -7.6 °F 78% 30.38 in 7.0 mi SE 10.4 mph - N/A   Overcast
11:10 PM -2.2 °F -18.9 °F -5.8 °F 85% 30.38 in 3.0 mi SE 10.4 mph - N/A Snow Light Snow
11:30 PM -2.2 °F -16.8 °F -4.0 °F 92% 30.37 in 3.0 mi SE 8.1 mph - N/A Snow Light Snow
11:50 PM -2.2 °F -18.0 °F -4.0 °F 92% 30.36 in 3.0 mi SE 9.2 mph - N/A Snow Light Snow